Home > Time Zones > World Clock > Weather > U.S.A. > Hilo > Past weeks

Flag for U.S.A. Weather past 2 weeks in Hilo, Hawaii, U.S.A.

Now
75 °F

Passing clouds.


Feels Like: 76 °F
Forecast: 67 / 82 °F
Wind: No wind

Location: Hilo International Airport

Current Time: Apr 1, 2015 at 7:14:44 PM

Latest Report: Apr 1, 2015 at 6:53 PM


Visibility: 10 mi

Pressure: 29.99 "Hg

Humidity: 74%

Dew point: 66 °F

Location of HiloLocation

Historic Weather in Hilo — Graph

°F

Hilo temperature yesterday

Maximum temperature yesterday: 83 °F (at 11:53 AM)
Minimum temperature yesterday: 68 °F (at 5:53 AM)
Average temperature yesterday: 74 °F

Past Weeks' High & Low Weather Summary

 TemperatureHumidityPressure
High84 °F (Apr 1, 11:53 AM)100% (Mar 30, 3:32 AM)30.21 "Hg (Mar 30, 3:32 AM)
Low64 °F (Mar 18, 4:53 AM)49% (Mar 18, 9:53 AM)29.96 "Hg (Apr 1, 3:53 PM)
Average73 °F76%30.10 "Hg
* Reported Mar 17 5:53 PM — Apr 1 5:53 PM, Hilo, Weather by CustomWeather, © 2015

Note: Actual official high and low records may vary slightly from our data, if they occured in-between our weather recording intervals... More about our weather records

Advertising

Hilo weather history for previous 24 hours

 ConditionsComfort  
Time TempWeatherWind HumidityBarometerVisibility
5:53 PM
Wed, Apr 1
77 °FPassing clouds.5 mph69%29.98 "Hg10 mi
4:53 PM79 °FScattered clouds.8 mph65%29.97 "Hg10 mi
3:53 PM80 °FScattered clouds.12 mph60%29.96 "Hg10 mi
2:53 PM82 °FScattered clouds.9 mph58%29.96 "Hg10 mi
1:53 PM83 °FPassing clouds.12 mph55%29.98 "Hg10 mi
12:53 PM82 °FPassing clouds.9 mph56%30.01 "Hg10 mi
11:53 AM84 °FScattered clouds.7 mph49%30.03 "Hg10 mi
10:53 AM79 °FScattered clouds.N/A62%30.05 "Hg10 mi
9:53 AM79 °FBroken clouds.3 mph60%30.06 "Hg10 mi
8:53 AM78 °FScattered clouds.No wind62%30.06 "Hg10 mi
7:53 AM74 °FPartly sunny.6 mph74%30.04 "Hg10 mi
6:53 AM69 °FPartly sunny.7 mph87%30.02 "Hg10 mi
5:53 AM69 °FMostly cloudy.No wind87%30.00 "Hg10 mi
4:53 AM69 °FOvercast.7 mph87%29.98 "Hg10 mi
3:53 AM69 °FPartly cloudy.7 mph90%29.98 "Hg10 mi
2:53 AM68 °FLight rain. Mostly cloudy.8 mph93%29.99 "Hg8 mi
1:53 AM70 °FLight rain. Passing clouds.7 mph87%30.01 "Hg7 mi
12:53 AM70 °FPassing clouds.8 mph87%30.03 "Hg10 mi
12:34 AM72 °FMostly cloudy.6 mph83%30.04 "Hg10 mi
11:53 PM
Tue, Mar 31
70 °FMostly cloudy.No wind90%30.06 "Hg10 mi
10:53 PM70 °FOvercast.5 mph90%30.07 "Hg10 mi
9:53 PM70 °FLight rain. Fog.7 mph90%30.08 "Hg5 mi
9:18 PM72 °FOvercast.12 mph83%30.08 "Hg10 mi
8:53 PM72 °FMostly cloudy.13 mph81%30.06 "Hg10 mi
8:21 PM73 °FMostly cloudy.No wind83%30.06 "Hg10 mi
7:53 PM75 °FMostly cloudy.5 mph76%30.04 "Hg10 mi
Weather by CustomWeather, © 2015

See weather overviewHow to use our weather pages